Home > Weather > Granada > Past weeks

Flag for Spain Past Weather in Granada, Spain — Yesterday and Last 2 Weeks

Now
82 °F

Clear.


Feels Like: 81 °F
Forecast: 71 / 99 °F
Wind: 5 mph from Southwest

Location: Granada / Aeropuerto

Current Time: Jul 30, 2016 at 10:56:03 PM

Latest Report: Jul 30, 2016 at 10:30 PM


Visibility: 10 mi

Pressure: 30.12 "Hg (27.83 "Hg at 698m altitude)

Humidity: 30%

Dew Point: 48 °F

Location of GranadaLocation

Past Weather in Granada — Graph

°F

Granada Temperature Yesterday

Maximum temperature yesterday: 104 °F (at 4:00 PM)
Minimum temperature yesterday: 64 °F (at 7:30 AM)
Average temperature yesterday: 85 °F

High & Low Weather Summary for the Past Weeks

 TemperatureHumidityPressure
High104 °F (Jul 20, 6:00 PM)83% (Jul 24, 4:30 AM)30.18 "Hg (Jul 24, 4:30 AM)
Low61 °F (Jul 23, 7:00 AM)11% (Jul 21, 4:00 PM)29.95 "Hg (Jul 22, 5:30 PM)
Average83 °F39%30.07 "Hg
* Reported Jul 15 9:00 PM — Jul 30 9:30 PM, Granada, Weather by CustomWeather, © 2016

Note: Actual official high and low records may vary slightly from our data, if they occured in-between our weather recording intervals... More about our weather records

Advertising

Granada Weather History for the Previous 24 Hours

Scroll right to see more
 ConditionsComfort  
Time TempWeatherWind HumidityBarometerVisibility
9:30 PM
Sat, Jul 30
88 °FSunny.8 mph24%30.09 "Hg10 mi
9:00 PM90 °FSunny.9 mph26%30.07 "Hg10 mi
8:30 PM91 °FPassing clouds.9 mph24%30.07 "HgN/A
8:00 PM91 °FSunny.12 mph26%30.07 "Hg10 mi
7:30 PM93 °FSunny.13 mph26%30.04 "Hg10 mi
7:00 PM95 °FPassing clouds.15 mph23%30.04 "HgN/A
6:30 PM97 °FPassing clouds.13 mph22%30.04 "HgN/A
6:00 PM97 °FPassing clouds.13 mph20%30.04 "HgN/A
5:30 PM99 °FPassing clouds.12 mph21%30.04 "HgN/A
5:00 PM99 °FPassing clouds.10 mph24%30.04 "HgN/A
4:30 PM99 °FPassing clouds.13 mph22%30.04 "HgN/A
4:00 PM97 °FScattered clouds.12 mph25%30.04 "HgN/A
3:30 PM97 °FScattered clouds.14 mph27%30.07 "HgN/A
3:00 PM95 °FScattered clouds.13 mph28%30.07 "HgN/A
2:30 PM95 °FScattered clouds.13 mph25%30.07 "HgN/A
2:00 PM97 °FPassing clouds.16 mph19%30.07 "HgN/A
1:30 PM95 °FPassing clouds.8 mph26%30.07 "HgN/A
1:00 PM91 °FSunny.3 mph34%30.07 "Hg10 mi
12:30 PM90 °FSunny.2 mph36%30.07 "Hg10 mi
12:00 PM86 °FSunny.2 mph38%30.09 "Hg10 mi
11:30 AM84 °FSunny.1 mph40%30.09 "Hg10 mi
11:00 AM81 °FSunny.2 mph48%30.09 "Hg10 mi
10:30 AM81 °FSunny.1 mph45%30.09 "Hg10 mi
10:00 AM77 °FSunny.1 mph54%30.09 "Hg10 mi
9:30 AM75 °FSunny.No wind57%30.09 "Hg10 mi
9:00 AM73 °FSunny.No wind57%30.09 "Hg10 mi
8:30 AM72 °FSunny.No wind61%30.07 "Hg10 mi
8:00 AM68 °FClear.No wind64%30.07 "Hg10 mi
7:30 AM68 °FClear.No wind64%30.07 "Hg10 mi
7:00 AM68 °FClear.1 mph69%30.07 "Hg10 mi
6:30 AM68 °FClear.1 mph64%30.07 "Hg10 mi
6:00 AM70 °FClear.No wind60%30.07 "Hg10 mi
5:30 AM70 °FMild.No wind60%30.07 "HgN/A
5:00 AM70 °FMild.1 mph60%30.07 "HgN/A
4:30 AM72 °FMild.No wind57%30.07 "HgN/A
4:00 AM72 °FMild.1 mph57%30.07 "HgN/A
3:30 AM73 °FMild.No wind50%30.07 "HgN/A
3:00 AM75 °FMild.No wind47%30.07 "HgN/A
2:30 AM77 °FWarm.2 mph47%30.07 "HgN/A
2:00 AM75 °FMild.2 mph50%30.07 "HgN/A
1:30 AM79 °FWarm.1 mph45%30.07 "HgN/A
1:00 AM82 °FPleasantly warm.1 mph37%30.07 "HgN/A
12:30 AM82 °FPleasantly warm.5 mph37%30.07 "HgN/A
12:00 AM82 °FWarm.6 mph42%30.07 "HgN/A
11:30 PM
Fri, Jul 29
84 °FWarm.6 mph43%30.07 "HgN/A
11:00 PM84 °FClear.13 mph43%30.04 "Hg10 mi
10:30 PM86 °FPassing clouds.10 mph38%30.04 "HgN/A
10:00 PM90 °FSunny.8 mph29%30.01 "Hg10 mi
Weather by CustomWeather, © 2016

See weather overviewHow to use our weather pages